QPF
0.00 0.00 0.00 0.00 0.00 0.00 0.00 0.00 0.00 0.00 0.00 0.00 0.00 0.00 0.00 0.00 0.01 0.01 0.00 0.00 0.00 0.00 0.00 0.00 0.02 0.01 0.01 0.01 0.02 0.02 0.02 0.02 0.03 0.02 0.01 0.01 0.01 0.01 0.00 0.00 0.00 0.00 0.00 0.00 0.00 0.00 0.00 0.00 0.00
0.00 0.00 0.00 0.00 0.00 0.00 0.00 0.00 0.00 0.00 0.00 0.00 0.00 0.00 0.00 0.00 0.00 0.00 0.00 0.00 0.00 0.00 0.01 0.00 0.01 0.01 0.01 0.01 0.01 0.01 0.01 0.01 0.02 0.01 0.01 0.01 0.01 0.01 0.01 0.00 0.00 0.00 0.00 0.00 0.00 0.00 0.00 0.00 0.00
0.00 0.00 0.00 0.00 0.00 0.00 0.00 0.00 0.00 0.00 0.00 0.00 0.00 0.00 0.00 0.00 0.00 0.00 0.00 0.00 0.00 0.00 0.00 0.00 0.00 0.00 0.00 0.00 0.01 0.01 0.01 0.01 0.01 0.01 0.01 0.01 0.01 0.01 0.01 0.01 0.00 0.00 0.00 0.00 0.00 0.00 0.00 0.00 0.00
0.00 0.00 0.00 0.00 0.00 0.00 0.00 0.00 0.00 0.00 0.00 0.00 0.00 0.00 0.00 0.00 0.00 0.00 0.00 0.00 0.00 0.00 0.00 0.00 0.00 0.00 0.00 0.00 0.01 0.00 0.00 0.01 0.01 0.01 0.01 0.01 0.01 0.01 0.01 0.00 0.00 0.00 0.00 0.00 0.00 0.00 0.00 0.00 0.00
0.00 0.00 0.00 0.00 0.00 0.00 0.00 0.00 0.00 0.00 0.00 0.00 0.00 0.00 0.00 0.00 0.00 0.00 0.00 0.00 0.00 0.00 0.00 0.00 0.00 0.00 0.00 0.00 0.00 0.00 0.01 0.01 0.01 0.01 0.01 0.01 0.00 0.00 0.00 0.00 0.00 0.00 0.00 0.00 0.00 0.00 0.00 0.00 0.00
0.00 0.00 0.00 0.00 0.00 0.00 0.00 0.00 0.00 0.00 0.00 0.00 0.00 0.00 0.00 0.00 0.00 0.00 0.00 0.00 0.00 0.00 0.00 0.00 0.00 0.00 0.00 0.00 0.00 0.01 0.01 0.01 0.01 0.01 0.00 0.00 0.00 0.00 0.00 0.00 0.00 0.00 0.00 0.00 0.00 0.00 0.00 0.00 0.00
0.00 0.00 0.00 0.00 0.00 0.00 0.00 0.00 0.00 0.00 0.00 0.00 0.00 0.00 0.00 0.00 0.00 0.00 0.00 0.00 0.00 0.00 0.00 0.00 0.00 0.00 0.00 0.00 0.00 0.00 0.00 0.00 0.00 0.00 0.00 0.00 0.00 0.00 0.00 0.00 0.00 0.00 0.00 0.00 0.00 0.00 0.00 0.00 0.00
0.00 0.00 0.00 0.00 0.00 0.00 0.00 0.00 0.00 0.00 0.00 0.00 0.00 0.00 0.00 0.00 0.00 0.00 0.00 0.00 0.00 0.00 0.00 0.00 0.00 0.00 0.00 0.00 0.00 0.00 0.00 0.00 0.00 0.00 0.00 0.00 0.00 0.00 0.00 0.00 0.00 0.00 0.00 0.00 0.00 0.00 0.00 0.00 0.00
0.00 0.00 0.00 0.00 0.00 0.00 0.00 0.00 0.00 0.00 0.00 0.00 0.00 0.00 0.00 0.00 0.00 0.00 0.00 0.00 0.00 0.00 0.00 0.00 0.00 0.00 0.00 0.00 0.00 0.00 0.00 0.00 0.00 0.00 0.00 0.00 0.00 0.00 0.00 0.00 0.00 0.00 0.00 0.00 0.00 0.00 0.00 0.00 0.00
0.01 0.00 0.00 0.00 0.00 0.00 0.00 0.00 0.00 0.00 0.00 0.00 0.00 0.00 0.00 0.00 0.00 0.00 0.00 0.00 0.00 0.00 0.00 0.00 0.00 0.00 0.00 0.00 0.00 0.00 0.00 0.00 0.00 0.00 0.00 0.00 0.00 0.00 0.00 0.00 0.00 0.00 0.00 0.00 0.00 0.00 0.00 0.00 0.00
0.01 0.00 0.00 0.00 0.00 0.00 0.00 0.00 0.00 0.00 0.00 0.00 0.00 0.00 0.00 0.00 0.00 0.00 0.00 0.00 0.00 0.00 0.00 0.00 0.00 0.00 0.00 0.00 0.00 0.00 0.00 0.00 0.00 0.00 0.00 0.00 0.00 0.00 0.00 0.00 0.00 0.00 0.00 0.00 0.00 0.00 0.00 0.00 0.00
0.01 0.00 0.00 0.00 0.00 0.00 0.00 0.00 0.00 0.00 0.00 0.00 0.00 0.00 0.00 0.00 0.00 0.00 0.00 0.00 0.00 0.00 0.00 0.00 0.00 0.00 0.00 0.00 0.00 0.00 0.00 0.00 0.00 0.00 0.00 0.00 0.00 0.00 0.00 0.00 0.00 0.00 0.00 0.00 0.00 0.00 0.00 0.00 0.00
0.01 0.00 0.00 0.00 0.00 0.00 0.00 0.00 0.00 0.00 0.00 0.00 0.00 0.00 0.00 0.00 0.00 0.00 0.00 0.00 0.00 0.00 0.00 0.00 0.00 0.00 0.00 0.00 0.00 0.00 0.00 0.00 0.00 0.00 0.00 0.00 0.00 0.00 0.00 0.00 0.00 0.00 0.00 0.00 0.00 0.00 0.00 0.00 0.00
0.01 0.01 0.00 0.00 0.00 0.00 0.00 0.00 0.00 0.00 0.00 0.00 0.00 0.00 0.00 0.00 0.00 0.00 0.00 0.00 0.00 0.00 0.00 0.00 0.00 0.00 0.00 0.00 0.00 0.00 0.00 0.00 0.00 0.00 0.00 0.00 0.00 0.00 0.00 0.00 0.00 0.00 0.00 0.00 0.00 0.00 0.00 0.00 0.00
0.01 0.01 0.01 0.00 0.00 0.00 0.00 0.00 0.00 0.00 0.00 0.00 0.00 0.00 0.00 0.00 0.00 0.00 0.00 0.00 0.00 0.00 0.00 0.00 0.00 0.00 0.00 0.00 0.00 0.00 0.00 0.00 0.00 0.00 0.00 0.00 0.00 0.00 0.00 0.00 0.00 0.00 0.00 0.00 0.00 0.00 0.00 0.00 0.00
0.01 0.02 0.01 0.00 0.00 0.00 0.00 0.00 0.00 0.00 0.00 0.00 0.00 0.00 0.00 0.00 0.00 0.00 0.00 0.00 0.00 0.00 0.00 0.00 0.00 0.00 0.00 0.00 0.00 0.00 0.00 0.00 0.00 0.00 0.00 0.00 0.00 0.00 0.00 0.00 0.00 0.00 0.00 0.00 0.00 0.00 0.00 0.00 0.00
0.02 0.01 0.01 0.00 0.00 0.00 0.00 0.00 0.00 0.00 0.00 0.00 0.00 0.00 0.00 0.00 0.00 0.00 0.00 0.00 0.00 0.00 0.00 0.00 0.00 0.00 0.00 0.00 0.00 0.00 0.00 0.00 0.00 0.00 0.00 0.00 0.00 0.00 0.00 0.00 0.00 0.00 0.00 0.00 0.00 0.00 0.00 0.00 0.00
0.03 0.01 0.00 0.00 0.00 0.00 0.00 0.00 0.00 0.00 0.00 0.00 0.00 0.00 0.00 0.00 0.00 0.00 0.00 0.00 0.00 0.00 0.00 0.00 0.00 0.00 0.00 0.00 0.00 0.00 0.00 0.00 0.00 0.00 0.00 0.00 0.00 0.00 0.00 0.00 0.00 0.00 0.00 0.00 0.00 0.00 0.00 0.00 0.00
0.01 0.01 0.01 0.00 0.00 0.00 0.00 0.00 0.00 0.00 0.00 0.00 0.00 0.00 0.00 0.00 0.00 0.00 0.00 0.00 0.00 0.00 0.00 0.00 0.00 0.00 0.00 0.00 0.00 0.00 0.00 0.00 0.00 0.00 0.00 0.00 0.00 0.00 0.00 0.00 0.00 0.00 0.00 0.00 0.00 0.00 0.00 0.00 0.00
0.03 0.02 0.01 0.01 0.00 0.00 0.00 0.00 0.00 0.00 0.00 0.00 0.00 0.00 0.00 0.00 0.00 0.00 0.00 0.00 0.00 0.00 0.00 0.00 0.00 0.00 0.00 0.00 0.00 0.00 0.00 0.00 0.00 0.00 0.00 0.00 0.00 0.00 0.00 0.00 0.00 0.00 0.00 0.00 0.00 0.00 0.00 0.00 0.00
0.03 0.02 0.02 0.01 0.00 0.00 0.00 0.00 0.00 0.00 0.00 0.00 0.00 0.00 0.00 0.00 0.00 0.00 0.00 0.00 0.00 0.00 0.00 0.00 0.00 0.00 0.00 0.00 0.00 0.00 0.00 0.00 0.00 0.00 0.00 0.00 0.00 0.00 0.00 0.00 0.00 0.00 0.00 0.00 0.00 0.00 0.00 0.00 0.00
0.01 0.01 0.01 0.02 0.02 0.01 0.00 0.00 0.00 0.00 0.00 0.00 0.00 0.00 0.00 0.00 0.00 0.00 0.00 0.00 0.00 0.00 0.00 0.00 0.00 0.00 0.00 0.00 0.00 0.00 0.00 0.00 0.00 0.00 0.00 0.00 0.00 0.00 0.00 0.00 0.00 0.00 0.00 0.00 0.00 0.00 0.00 0.00 0.00
0.00 0.00 0.01 0.02 0.04 0.03 0.01 0.01 0.00 0.00 0.00 0.00 0.00 0.00 0.00 0.00 0.00 0.00 0.00 0.00 0.00 0.00 0.00 0.00 0.00 0.00 0.00 0.00 0.00 0.00 0.00 0.00 0.00 0.00 0.00 0.00 0.00 0.00 0.00 0.00 0.00 0.00 0.00 0.00 0.00 0.00 0.00 0.00 0.00
0.01 0.02 0.03 0.04 0.07 0.08 0.02 0.01 0.00 0.00 0.00 0.00 0.00 0.00 0.00 0.00 0.00 0.00 0.00 0.00 0.00 0.00 0.00 0.00 0.00 0.00 0.00 0.00 0.00 0.00 0.00 0.00 0.00 0.00 0.00 0.00 0.00 0.00 0.00 0.00 0.00 0.00 0.00 0.00 0.00 0.00 0.00 0.00 0.00
0.05 0.07 0.11 0.14 0.15 0.08 0.01 0.00 0.00 0.00 0.00 0.00 0.00 0.00 0.00 0.00 0.00 0.00 0.00 0.00 0.00 0.00 0.00 0.00 0.00 0.00 0.00 0.00 0.00 0.00 0.00 0.00 0.00 0.00 0.00 0.00 0.00 0.00 0.00 0.00 0.00 0.00 0.00 0.00 0.00 0.00 0.00 0.00 0.00
0.04 0.04 0.06 0.08 0.06 0.02 0.00 0.00 0.00 0.00 0.00 0.00 0.00 0.00 0.00 0.00 0.00 0.00 0.00 0.00 0.00 0.00 0.00 0.00 0.00 0.00 0.00 0.00 0.00 0.00 0.00 0.00 0.00 0.00 0.00 0.00 0.00 0.00 0.00 0.00 0.00 0.00 0.00 0.00 0.00 0.00 0.00 0.00 0.00
0.03 0.04 0.02 0.02 0.02 0.01 0.00 0.00 0.00 0.00 0.00 0.00 0.00 0.00 0.00 0.00 0.00 0.00 0.00 0.00 0.00 0.00 0.00 0.00 0.00 0.00 0.00 0.00 0.00 0.00 0.00 0.00 0.00 0.00 0.00 0.00 0.00 0.00 0.00 0.00 0.00 0.00 0.00 0.00 0.00 0.00 0.00 0.01 0.01
0.04 0.05 0.07 0.08 0.07 0.03 0.00 0.00 0.00 0.00 0.00 0.00 0.00 0.00 0.00 0.00 0.00 0.00 0.00 0.00 0.00 0.00 0.00 0.00 0.00 0.00 0.00 0.00 0.00 0.00 0.00 0.00 0.00 0.00 0.00 0.00 0.00 0.00 0.00 0.00 0.00 0.01 0.01 0.01 0.01 0.01 0.01 0.01 0.01
0.06 0.08 0.11 0.12 0.09 0.03 0.01 0.00 0.00 0.00 0.00 0.00 0.00 0.00 0.00 0.00 0.00 0.00 0.00 0.00 0.00 0.00 0.00 0.00 0.00 0.00 0.00 0.00 0.00 0.00 0.00 0.00 0.00 0.00 0.00 0.00 0.00 0.00 0.00 0.00 0.01 0.01 0.01 0.01 0.01 0.01 0.02 0.02 0.02
0.06 0.05 0.07 0.11 0.12 0.04 0.01 0.00 0.00 0.00 0.00 0.00 0.00 0.00 0.00 0.00 0.00 0.00 0.00 0.00 0.00 0.00 0.00 0.00 0.00 0.00 0.00 0.00 0.00 0.00 0.00 0.00 0.00 0.00 0.00 0.00 0.00 0.00 0.00 0.00 0.01 0.01 0.01 0.02 0.02 0.02 0.02 0.03 0.03
MSLP
1015.89 1016.50 1017.40 1018.47 1019.55 1020.51 1021.25 1021.70 1021.88 1021.84 1021.69 1021.52 1021.43 1021.45 1021.57 1021.76 1021.96 1022.09 1022.13 1022.07 1021.93 1021.76 1021.62 1021.55 1021.57 1021.67 1021.83 1021.99 1022.13 1022.22 1022.26 1022.28 1022.31 1022.39 1022.53 1022.73 1022.98 1023.24 1023.47 1023.64 1023.74 1023.78 1023.77 1023.74 1023.73 1023.74 1023.78 1023.85 1023.93
1016.61 1017.38 1018.38 1019.46 1020.48 1021.29 1021.82 1022.03 1021.96 1021.71 1021.38 1021.11 1020.96 1020.97 1021.13 1021.39 1021.65 1021.86 1021.97 1021.97 1021.88 1021.75 1021.64 1021.60 1021.65 1021.77 1021.94 1022.13 1022.29 1022.41 1022.50 1022.56 1022.65 1022.78 1022.96 1023.21 1023.48 1023.74 1023.97 1024.13 1024.21 1024.22 1024.18 1024.12 1024.08 1024.07 1024.09 1024.15 1024.22
1017.44 1018.31 1019.32 1020.34 1021.22 1021.84 1022.13 1022.11 1021.84 1021.42 1021.00 1020.67 1020.53 1020.58 1020.80 1021.12 1021.46 1021.73 1021.89 1021.93 1021.88 1021.80 1021.73 1021.72 1021.80 1021.94 1022.14 1022.34 1022.51 1022.66 1022.76 1022.86 1022.97 1023.13 1023.34 1023.59 1023.87 1024.13 1024.35 1024.49 1024.55 1024.54 1024.50 1024.43 1024.39 1024.37 1024.39 1024.45 1024.52
1018.33 1019.22 1020.18 1021.06 1021.74 1022.13 1022.20 1021.98 1021.56 1021.06 1020.61 1020.31 1020.22 1020.35 1020.64 1021.02 1021.40 1021.71 1021.90 1021.97 1021.96 1021.92 1021.90 1021.93 1022.04 1022.22 1022.43 1022.63 1022.81 1022.95 1023.05 1023.15 1023.27 1023.42 1023.63 1023.88 1024.15 1024.39 1024.59 1024.73 1024.79 1024.79 1024.75 1024.70 1024.68 1024.68 1024.72 1024.79 1024.87
1019.22 1020.06 1020.89 1021.58 1022.03 1022.19 1022.06 1021.69 1021.19 1020.68 1020.28 1020.07 1020.08 1020.30 1020.67 1021.10 1021.50 1021.81 1022.00 1022.09 1022.11 1022.10 1022.13 1022.22 1022.37 1022.58 1022.80 1023.00 1023.17 1023.28 1023.36 1023.43 1023.52 1023.66 1023.85 1024.08 1024.33 1024.57 1024.76 1024.89 1024.96 1024.98 1024.97 1024.97 1024.98 1025.02 1025.10 1025.19 1025.28
1020.03 1020.76 1021.40 1021.87 1022.08 1022.02 1021.73 1021.28 1020.78 1020.33 1020.05 1019.98 1020.12 1020.44 1020.87 1021.31 1021.70 1021.99 1022.16 1022.24 1022.27 1022.30 1022.38 1022.53 1022.74 1022.98 1023.21 1023.41 1023.54 1023.62 1023.66 1023.69 1023.75 1023.86 1024.03 1024.25 1024.48 1024.71 1024.90 1025.04 1025.12 1025.17 1025.20 1025.25 1025.31 1025.40 1025.51 1025.62 1025.73
1020.68 1021.26 1021.69 1021.92 1021.91 1021.67 1021.27 1020.80 1020.36 1020.04 1019.92 1020.01 1020.29 1020.70 1021.16 1021.60 1021.94 1022.17 1022.29 1022.35 1022.39 1022.46 1022.59 1022.80 1023.06 1023.34 1023.59 1023.77 1023.89 1023.93 1023.94 1023.94 1023.98 1024.07 1024.24 1024.45 1024.68 1024.90 1025.09 1025.23 1025.33 1025.40 1025.46 1025.54 1025.64 1025.77 1025.91 1026.05 1026.17
1021.12 1021.53 1021.75 1021.76 1021.56 1021.19 1020.74 1020.29 1019.95 1019.80 1019.86 1020.11 1020.51 1020.99 1021.46 1021.86 1022.13 1022.28 1022.34 1022.36 1022.40 1022.51 1022.70 1022.96 1023.28 1023.60 1023.87 1024.05 1024.15 1024.18 1024.17 1024.17 1024.21 1024.31 1024.49 1024.71 1024.95 1025.17 1025.36 1025.49 1025.59 1025.66 1025.73 1025.82 1025.94 1026.09 1026.25 1026.41 1026.53
1021.35 1021.59 1021.63 1021.44 1021.09 1020.63 1020.17 1019.79 1019.58 1019.59 1019.81 1020.21 1020.71 1021.23 1021.68 1022.01 1022.20 1022.26 1022.26 1022.24 1022.28 1022.42 1022.66 1022.99 1023.35 1023.71 1024.00 1024.20 1024.31 1024.34 1024.35 1024.36 1024.44 1024.58 1024.79 1025.04 1025.29 1025.52 1025.70 1025.82 1025.89 1025.94 1025.99 1026.07 1026.18 1026.33 1026.50 1026.66 1026.79
1021.39 1021.49 1021.36 1021.03 1020.58 1020.08 1019.63 1019.33 1019.24 1019.39 1019.75 1020.25 1020.81 1021.33 1021.74 1022.00 1022.10 1022.09 1022.02 1021.98 1022.03 1022.19 1022.48 1022.86 1023.27 1023.66 1023.98 1024.20 1024.33 1024.39 1024.43 1024.50 1024.63 1024.83 1025.09 1025.38 1025.67 1025.90 1026.07 1026.16 1026.20 1026.20 1026.22 1026.26 1026.34 1026.47 1026.63 1026.79 1026.93
1021.30 1021.28 1021.03 1020.61 1020.10 1019.59 1019.18 1018.95 1018.96 1019.21 1019.65 1020.21 1020.78 1021.27 1021.63 1021.81 1021.84 1021.77 1021.66 1021.61 1021.67 1021.86 1022.19 1022.60 1023.05 1023.47 1023.81 1024.05 1024.21 1024.32 1024.41 1024.54 1024.74 1025.01 1025.34 1025.68 1025.99 1026.23 1026.39 1026.46 1026.45 1026.42 1026.38 1026.38 1026.43 1026.53 1026.67 1026.83 1026.97
1021.15 1021.04 1020.72 1020.25 1019.72 1019.22 1018.85 1018.69 1018.76 1019.06 1019.53 1020.08 1020.63 1021.07 1021.36 1021.48 1021.46 1021.35 1021.23 1021.18 1021.26 1021.48 1021.83 1022.27 1022.73 1023.16 1023.52 1023.78 1023.97 1024.12 1024.27 1024.47 1024.74 1025.07 1025.46 1025.84 1026.18 1026.44 1026.60 1026.65 1026.62 1026.55 1026.48 1026.44 1026.46 1026.54 1026.67 1026.82 1026.97
1021.00 1020.84 1020.49 1020.01 1019.49 1019.02 1018.69 1018.56 1018.66 1018.96 1019.40 1019.91 1020.38 1020.76 1020.98 1021.05 1021.00 1020.88 1020.77 1020.75 1020.85 1021.09 1021.46 1021.90 1022.36 1022.79 1023.14 1023.42 1023.63 1023.81 1024.01 1024.26 1024.58 1024.97 1025.40 1025.82 1026.19 1026.47 1026.63 1026.69 1026.67 1026.59 1026.52 1026.47 1026.48 1026.55 1026.67 1026.83 1026.99
1020.87 1020.69 1020.35 1019.90 1019.43 1019.00 1018.71 1018.59 1018.67 1018.92 1019.29 1019.70 1020.09 1020.38 1020.55 1020.58 1020.52 1020.41 1020.33 1020.34 1020.47 1020.72 1021.08 1021.51 1021.96 1022.37 1022.71 1022.99 1023.21 1023.42 1023.64 1023.93 1024.28 1024.70 1025.15 1025.59 1025.98 1026.28 1026.48 1026.57 1026.59 1026.55 1026.51 1026.49 1026.52 1026.60 1026.72 1026.89 1027.07
1020.77 1020.60 1020.30 1019.91 1019.50 1019.13 1018.87 1018.74 1018.77 1018.94 1019.20 1019.50 1019.77 1019.98 1020.09 1020.10 1020.04 1019.96 1019.92 1019.95 1020.10 1020.35 1020.70 1021.11 1021.52 1021.91 1022.24 1022.52 1022.75 1022.97 1023.22 1023.52 1023.88 1024.29 1024.74 1025.18 1025.59 1025.91 1026.16 1026.31 1026.39 1026.44 1026.47 1026.51 1026.58 1026.69 1026.84 1027.01 1027.21
1020.67 1020.54 1020.31 1020.00 1019.67 1019.36 1019.12 1018.97 1018.92 1018.98 1019.12 1019.28 1019.44 1019.56 1019.61 1019.61 1019.56 1019.51 1019.50 1019.55 1019.71 1019.95 1020.27 1020.65 1021.04 1021.40 1021.73 1022.01 1022.27 1022.51 1022.77 1023.07 1023.41 1023.81 1024.23 1024.66 1025.06 1025.41 1025.70 1025.93 1026.11 1026.25 1026.37 1026.50 1026.63 1026.79 1026.96 1027.15 1027.36
1020.52 1020.47 1020.33 1020.12 1019.88 1019.63 1019.40 1019.21 1019.09 1019.02 1019.01 1019.04 1019.07 1019.10 1019.10 1019.08 1019.04 1019.01 1019.02 1019.09 1019.23 1019.45 1019.75 1020.09 1020.46 1020.82 1021.17 1021.48 1021.77 1022.04 1022.32 1022.61 1022.94 1023.30 1023.68 1024.07 1024.46 1024.83 1025.16 1025.47 1025.73 1025.98 1026.20 1026.42 1026.62 1026.83 1027.03 1027.23 1027.45
1020.32 1020.35 1020.32 1020.23 1020.08 1019.88 1019.66 1019.42 1019.20 1019.00 1018.84 1018.72 1018.63 1018.57 1018.51 1018.47 1018.43 1018.42 1018.43 1018.50 1018.63 1018.82 1019.08 1019.41 1019.77 1020.15 1020.53 1020.90 1021.24 1021.57 1021.88 1022.18 1022.49 1022.81 1023.14 1023.49 1023.84 1024.20 1024.56 1024.92 1025.27 1025.60 1025.92 1026.21 1026.48 1026.72 1026.95 1027.17 1027.39
1020.06 1020.20 1020.29 1020.31 1020.24 1020.09 1019.85 1019.55 1019.22 1018.88 1018.56 1018.30 1018.08 1017.93 1017.82 1017.75 1017.70 1017.69 1017.70 1017.75 1017.86 1018.03 1018.27 1018.58 1018.95 1019.37 1019.82 1020.26 1020.69 1021.08 1021.44 1021.76 1022.06 1022.34 1022.62 1022.90 1023.21 1023.55 1023.92 1024.30 1024.70 1025.09 1025.47 1025.82 1026.13 1026.40 1026.65 1026.88 1027.12
1019.77 1020.02 1020.23 1020.35 1020.36 1020.23 1019.96 1019.58 1019.12 1018.63 1018.16 1017.74 1017.40 1017.15 1016.99 1016.89 1016.83 1016.81 1016.82 1016.86 1016.94 1017.09 1017.31 1017.63 1018.03 1018.50 1019.01 1019.55 1020.07 1020.54 1020.96 1021.31 1021.60 1021.85 1022.08 1022.31 1022.57 1022.87 1023.21 1023.60 1024.01 1024.43 1024.84 1025.21 1025.55 1025.84 1026.10 1026.34 1026.60
1019.46 1019.84 1020.16 1020.37 1020.43 1020.30 1019.98 1019.50 1018.91 1018.26 1017.63 1017.06 1016.60 1016.26 1016.03 1015.90 1015.83 1015.81 1015.81 1015.85 1015.92 1016.05 1016.27 1016.59 1017.02 1017.54 1018.13 1018.75 1019.36 1019.91 1020.39 1020.78 1021.07 1021.30 1021.49 1021.67 1021.87 1022.13 1022.43 1022.80 1023.20 1023.62 1024.03 1024.41 1024.75 1025.05 1025.31 1025.57 1025.85
1019.16 1019.66 1020.08 1020.36 1020.45 1020.30 1019.91 1019.32 1018.59 1017.78 1016.99 1016.28 1015.70 1015.27 1014.99 1014.83 1014.76 1014.74 1014.75 1014.78 1014.85 1014.99 1015.21 1015.54 1015.99 1016.55 1017.19 1017.87 1018.54 1019.15 1019.68 1020.09 1020.40 1020.61 1020.78 1020.92 1021.09 1021.30 1021.57 1021.91 1022.29 1022.69 1023.08 1023.46 1023.79 1024.09 1024.36 1024.63 1024.93
1018.87 1019.47 1019.97 1020.31 1020.40 1020.22 1019.76 1019.06 1018.18 1017.22 1016.28 1015.44 1014.75 1014.25 1013.92 1013.74 1013.67 1013.66 1013.69 1013.74 1013.82 1013.95 1014.18 1014.51 1014.97 1015.54 1016.20 1016.91 1017.61 1018.25 1018.80 1019.23 1019.54 1019.75 1019.91 1020.04 1020.19 1020.38 1020.63 1020.94 1021.30 1021.69 1022.07 1022.43 1022.76 1023.06 1023.34 1023.62 1023.94
1018.55 1019.23 1019.79 1020.15 1020.25 1020.03 1019.49 1018.69 1017.69 1016.60 1015.53 1014.58 1013.80 1013.24 1012.87 1012.68 1012.62 1012.63 1012.69 1012.76 1012.87 1013.01 1013.24 1013.56 1014.01 1014.56 1015.20 1015.89 1016.58 1017.21 1017.75 1018.18 1018.49 1018.71 1018.88 1019.02 1019.17 1019.37 1019.63 1019.94 1020.30 1020.67 1021.05 1021.40 1021.73 1022.03 1022.32 1022.62 1022.95
1018.15 1018.87 1019.47 1019.84 1019.93 1019.67 1019.08 1018.20 1017.11 1015.93 1014.77 1013.74 1012.90 1012.29 1011.91 1011.72 1011.67 1011.71 1011.79 1011.90 1012.03 1012.19 1012.41 1012.71 1013.12 1013.63 1014.22 1014.85 1015.48 1016.06 1016.57 1016.98 1017.30 1017.53 1017.71 1017.89 1018.08 1018.31 1018.59 1018.92 1019.29 1019.67 1020.06 1020.42 1020.75 1021.06 1021.36 1021.67 1022.00
1017.60 1018.33 1018.94 1019.31 1019.38 1019.11 1018.48 1017.56 1016.43 1015.21 1014.01 1012.94 1012.08 1011.45 1011.06 1010.88 1010.85 1010.91 1011.03 1011.16 1011.31 1011.48 1011.69 1011.97 1012.33 1012.77 1013.28 1013.82 1014.37 1014.88 1015.33 1015.71 1016.02 1016.26 1016.48 1016.69 1016.93 1017.21 1017.54 1017.91 1018.30 1018.71 1019.10 1019.47 1019.82 1020.14 1020.45 1020.76 1021.08
1016.90 1017.60 1018.18 1018.53 1018.59 1018.30 1017.67 1016.75 1015.63 1014.42 1013.24 1012.19 1011.34 1010.72 1010.35 1010.18 1010.17 1010.26 1010.39 1010.55 1010.72 1010.89 1011.09 1011.33 1011.64 1012.00 1012.41 1012.86 1013.31 1013.73 1014.12 1014.45 1014.74 1014.99 1015.24 1015.50 1015.79 1016.11 1016.48 1016.89 1017.31 1017.74 1018.15 1018.53 1018.89 1019.22 1019.53 1019.84 1020.15
1016.06 1016.69 1017.21 1017.51 1017.54 1017.25 1016.65 1015.78 1014.72 1013.57 1012.46 1011.48 1010.68 1010.12 1009.77 1009.63 1009.63 1009.74 1009.89 1010.06 1010.23 1010.40 1010.58 1010.79 1011.04 1011.33 1011.66 1012.00 1012.36 1012.70 1013.01 1013.29 1013.55 1013.81 1014.07 1014.35 1014.67 1015.03 1015.43 1015.85 1016.29 1016.72 1017.13 1017.52 1017.88 1018.22 1018.54 1018.84 1019.15
1015.17 1015.68 1016.09 1016.32 1016.30 1016.01 1015.44 1014.64 1013.68 1012.66 1011.67 1010.80 1010.11 1009.62 1009.33 1009.22 1009.25 1009.36 1009.51 1009.68 1009.84 1010.00 1010.16 1010.34 1010.55 1010.78 1011.03 1011.30 1011.57 1011.83 1012.07 1012.30 1012.53 1012.76 1013.01 1013.29 1013.61 1013.97 1014.36 1014.77 1015.19 1015.61 1016.01 1016.39 1016.75 1017.08 1017.40 1017.71 1018.00
1014.34 1014.68 1014.93 1015.04 1014.95 1014.64 1014.11 1013.39 1012.56 1011.69 1010.86 1010.15 1009.58 1009.20 1008.98 1008.92 1008.96 1009.08 1009.23 1009.38 1009.53 1009.67 1009.82 1009.97 1010.15 1010.34 1010.54 1010.75 1010.96 1011.16 1011.35 1011.52 1011.69 1011.88 1012.09 1012.34 1012.62 1012.94 1013.28 1013.65 1014.03 1014.40 1014.77 1015.12 1015.47 1015.80 1016.12 1016.43 1016.73
Thickness
5737 5741 5742 5732 5707 5685 5687 5699 5707 5709 5712 5718 5719 5712 5701 5695 5694 5689 5699 5703 5700 5697 5694 5693 5692 5690 5690 5689 5689 5689 5689 5689 5689 5689 5688 5688 5687 5687 5686 5685 5684 5684 5683 5682 5681 5681 5680 5680 5680
5733 5736 5730 5712 5686 5671 5681 5697 5703 5710 5716 5720 5717 5709 5700 5697 5701 5699 5700 5701 5700 5696 5694 5692 5691 5690 5689 5688 5688 5688 5688 5688 5688 5687 5687 5686 5685 5685 5684 5683 5682 5681 5681 5680 5679 5678 5678 5678 5677
5730 5730 5711 5693 5681 5674 5686 5698 5704 5713 5720 5720 5709 5705 5700 5698 5701 5701 5703 5701 5698 5695 5693 5691 5690 5689 5688 5687 5687 5687 5687 5687 5687 5686 5685 5684 5684 5683 5682 5681 5680 5679 5679 5678 5677 5677 5676 5676 5675
5720 5712 5700 5684 5682 5691 5697 5701 5707 5711 5716 5717 5707 5696 5699 5705 5706 5705 5703 5700 5697 5694 5692 5690 5689 5688 5687 5686 5686 5686 5686 5686 5685 5685 5684 5683 5682 5681 5680 5679 5678 5677 5677 5676 5676 5675 5674 5673 5673
5709 5694 5682 5673 5682 5695 5702 5706 5709 5709 5710 5712 5705 5693 5694 5704 5709 5706 5702 5699 5696 5692 5690 5689 5688 5687 5686 5685 5685 5684 5684 5684 5684 5683 5682 5681 5680 5679 5678 5677 5676 5675 5675 5674 5674 5673 5672 5671 5671
5690 5681 5666 5664 5677 5693 5702 5709 5710 5708 5708 5710 5702 5691 5692 5702 5704 5702 5701 5698 5695 5692 5689 5688 5687 5686 5685 5685 5684 5683 5683 5682 5682 5681 5680 5679 5678 5677 5676 5675 5674 5673 5673 5672 5672 5671 5670 5670 5669
5678 5670 5664 5669 5674 5685 5699 5709 5707 5706 5705 5707 5704 5690 5690 5698 5701 5701 5699 5696 5693 5691 5688 5687 5686 5685 5684 5683 5683 5682 5682 5681 5680 5679 5678 5677 5677 5675 5674 5673 5672 5672 5671 5670 5670 5669 5668 5668 5667
5679 5669 5666 5668 5672 5682 5699 5707 5710 5708 5707 5713 5707 5692 5689 5698 5701 5700 5696 5693 5692 5689 5688 5686 5685 5684 5683 5682 5681 5681 5680 5679 5678 5677 5676 5675 5675 5674 5673 5672 5671 5670 5669 5668 5668 5667 5666 5666 5665
5677 5659 5657 5667 5673 5684 5696 5700 5706 5712 5709 5706 5705 5703 5705 5704 5700 5696 5692 5689 5688 5688 5687 5686 5685 5683 5682 5681 5680 5679 5678 5677 5677 5675 5674 5673 5673 5672 5671 5670 5669 5668 5667 5667 5666 5665 5664 5664 5663
5663 5652 5662 5676 5682 5686 5692 5695 5700 5702 5699 5697 5696 5699 5703 5701 5698 5695 5692 5689 5688 5687 5687 5686 5685 5684 5682 5680 5679 5678 5677 5676 5675 5674 5673 5671 5671 5670 5669 5668 5667 5667 5666 5665 5664 5663 5662 5661 5660
5658 5657 5668 5677 5683 5687 5689 5692 5697 5695 5692 5697 5697 5695 5696 5696 5695 5694 5693 5691 5690 5690 5688 5687 5686 5684 5683 5681 5679 5677 5676 5675 5673 5672 5671 5670 5669 5668 5667 5666 5665 5664 5663 5663 5662 5661 5660 5659 5658
5653 5660 5669 5674 5680 5682 5684 5688 5690 5693 5699 5708 5706 5701 5697 5695 5695 5696 5694 5692 5691 5690 5689 5688 5687 5685 5683 5682 5680 5678 5676 5674 5673 5672 5671 5669 5667 5666 5665 5664 5663 5663 5662 5661 5660 5659 5658 5657 5656
5647 5656 5665 5671 5673 5677 5680 5681 5685 5692 5702 5705 5701 5696 5695 5696 5696 5696 5696 5694 5692 5691 5690 5690 5688 5686 5684 5682 5680 5678 5677 5675 5674 5672 5670 5669 5667 5666 5664 5663 5662 5661 5660 5659 5658 5657 5656 5655 5653
5645 5651 5657 5662 5666 5670 5672 5676 5680 5689 5696 5695 5693 5692 5693 5695 5695 5693 5693 5693 5694 5694 5693 5692 5689 5687 5685 5683 5681 5679 5677 5676 5674 5672 5671 5669 5668 5666 5664 5662 5661 5660 5659 5658 5656 5655 5654 5652 5651
5639 5638 5643 5651 5658 5663 5665 5663 5675 5687 5689 5688 5688 5690 5691 5693 5694 5695 5697 5698 5698 5697 5696 5694 5691 5689 5686 5684 5682 5680 5678 5676 5675 5673 5671 5669 5668 5666 5664 5662 5660 5659 5658 5656 5654 5653 5651 5649 5648
5625 5624 5625 5642 5650 5655 5651 5653 5676 5683 5681 5683 5685 5686 5689 5692 5695 5699 5700 5700 5699 5698 5696 5695 5693 5690 5687 5685 5683 5681 5679 5677 5675 5674 5672 5670 5668 5666 5663 5661 5660 5658 5656 5654 5652 5651 5648 5646 5644
5609 5611 5618 5632 5643 5645 5644 5651 5673 5679 5678 5680 5683 5685 5689 5692 5695 5699 5701 5702 5701 5700 5698 5696 5694 5691 5689 5686 5684 5682 5680 5678 5676 5674 5672 5670 5668 5666 5664 5661 5659 5657 5655 5653 5651 5648 5646 5643 5640
5605 5608 5614 5622 5636 5636 5636 5649 5667 5673 5674 5677 5681 5685 5689 5693 5700 5703 5704 5704 5703 5701 5699 5696 5694 5692 5689 5686 5683 5681 5679 5678 5676 5675 5673 5671 5669 5667 5664 5661 5659 5656 5653 5651 5648 5646 5643 5640 5637
5605 5606 5609 5620 5632 5630 5632 5644 5660 5666 5668 5673 5677 5682 5688 5696 5704 5705 5706 5705 5703 5701 5699 5697 5695 5693 5689 5687 5684 5681 5679 5678 5677 5676 5674 5672 5670 5667 5664 5661 5658 5656 5653 5651 5648 5644 5640 5636 5633
5595 5597 5602 5612 5623 5623 5624 5635 5654 5662 5666 5674 5680 5683 5689 5695 5700 5703 5705 5704 5704 5703 5701 5699 5697 5694 5692 5690 5688 5685 5682 5679 5678 5676 5674 5672 5670 5667 5664 5662 5659 5656 5652 5649 5645 5642 5637 5633 5629
5586 5591 5597 5601 5611 5614 5614 5619 5640 5658 5664 5673 5681 5687 5693 5698 5702 5704 5705 5706 5705 5705 5704 5702 5700 5697 5694 5691 5685 5681 5678 5676 5675 5674 5674 5672 5670 5668 5666 5663 5659 5656 5653 5649 5645 5641 5636 5631 5627
5585 5595 5594 5593 5590 5591 5600 5599 5630 5650 5659 5670 5679 5685 5693 5700 5704 5706 5708 5708 5708 5709 5708 5705 5703 5699 5696 5691 5687 5683 5682 5681 5682 5679 5676 5674 5671 5668 5666 5663 5659 5656 5652 5649 5645 5640 5636 5631 5625
5586 5591 5587 5584 5581 5580 5588 5589 5620 5641 5653 5669 5681 5688 5695 5702 5705 5708 5711 5713 5713 5712 5709 5707 5703 5700 5697 5692 5689 5685 5684 5683 5680 5676 5674 5672 5670 5667 5665 5662 5658 5655 5652 5648 5644 5639 5634 5631 5626
5578 5575 5572 5571 5566 5568 5588 5583 5609 5635 5657 5669 5679 5688 5695 5702 5705 5709 5712 5712 5713 5712 5709 5706 5703 5701 5697 5693 5690 5687 5685 5682 5677 5675 5673 5671 5668 5666 5664 5661 5657 5654 5651 5647 5643 5639 5634 5630 5625
5565 5560 5554 5553 5555 5571 5590 5582 5615 5643 5660 5670 5679 5687 5695 5700 5703 5706 5708 5708 5709 5708 5707 5705 5702 5700 5698 5694 5691 5689 5687 5682 5679 5676 5673 5670 5668 5667 5665 5660 5657 5654 5651 5647 5641 5636 5633 5628 5623
5566 5564 5558 5557 5560 5565 5569 5581 5621 5643 5656 5668 5678 5686 5691 5695 5699 5703 5706 5707 5708 5707 5705 5703 5702 5700 5697 5694 5692 5689 5686 5681 5679 5677 5673 5671 5669 5668 5665 5659 5656 5653 5649 5644 5639 5634 5630 5626 5621
5557 5557 5566 5556 5549 5551 5556 5578 5609 5633 5644 5656 5667 5675 5683 5689 5694 5697 5700 5702 5703 5703 5703 5702 5701 5699 5697 5694 5691 5688 5685 5681 5680 5677 5672 5669 5668 5666 5661 5657 5653 5650 5646 5641 5636 5631 5627 5622 5618
5559 5559 5549 5545 5544 5547 5558 5571 5603 5629 5640 5650 5659 5668 5678 5683 5686 5689 5691 5694 5696 5698 5698 5697 5697 5696 5695 5692 5689 5687 5684 5681 5678 5674 5670 5669 5666 5662 5658 5655 5651 5647 5642 5637 5632 5628 5624 5618 5615
5549 5548 5550 5549 5546 5551 5553 5580 5620 5632 5642 5648 5657 5665 5671 5675 5676 5679 5682 5684 5686 5687 5688 5688 5688 5688 5687 5685 5684 5682 5680 5678 5675 5672 5670 5667 5664 5659 5656 5652 5648 5643 5639 5634 5628 5625 5620 5614 5610
5548 5552 5551 5548 5546 5551 5558 5585 5623 5628 5636 5644 5651 5657 5661 5664 5666 5668 5670 5672 5673 5675 5677 5678 5679 5679 5679 5678 5677 5675 5674 5671 5669 5668 5667 5663 5660 5656 5652 5648 5644 5641 5636 5631 5625 5621 5616 5611 5606